Location: Artiguedieu
(43.5000°N, 0.5454°E)
Time: 12:48:06
(UTC+00:00)

Vanguard 1 - Pass Details

Date: 05 August 2021
Orbit: 652 x 3831 km, 34.3° (Epoch: 23 September)

Event Time Altitude Azimuth Distance (km) Brightness Sun altitude
Rises 14:31:43 0° 263° (W) 3,698 13.6 48.9°
Reaches altitude 10° 14:34:30 10° 249° (WSW) 3,050 13.5 48.5°
Maximum altitude 14:40:21 24° 198° (SSW) 2,807 13.2 47.5°
Drops below altitude 10° 14:49:10 10° 152° (SSE) 4,766 13.6 46.1°
Sets 14:55:02 0° 141° (SE) 6,390 14.1 45.1°
